Retour au catalogue

STARLINK-32378

ActifCommunicationsVLEO
NORAD 61064·PAYLOAD·🇺🇸 United States

Lancé Sep 13, 2024 depuis Vandenberg Space Force Base

Loading…

Prochains Passages (prochaines 24 heures)

TLE

FraisSource: CelesTrak SupGP

Époque: Sep 14, 2026, 20:50 UTC

1 61064C 24164Q   26257.86854167  .00013138  00000+0  42265-3 0  2575
2 61064  53.1593 291.0941 0001084  69.5214 165.3338 15.31682836    14

Suivez STARLINK-32378 en temps réel avec AllMySat

Download on the App Store